Location: Fuglau
(48.6333°N, 15.5500°E)
Time: 03:01:08
(UTC+00:00)

SL-08 RB Rocket - Pass Details

Date: 27 February 2020
Orbit: 648 x 683 km, 97.8° (Epoch: 03 April)

Event Time Altitude Azimuth Distance (km) Brightness Sun altitude
Exits shadow 18:04:28 25° 106° (ESE) 1,323 4.6 -15.1°
Maximum altitude 18:06:09 33° 67° (ENE) 1,102 4.4 -15.4°
Drops below altitude 10° 18:10:10 10° 4° (N) 2,063 6.3 -16.1°
Sets 18:12:32 0° 355° (N) 2,977 7.2 -16.5°
